Printer-friendly version

IAU Minor Planet Center

Minor Planet Center

(3) Juno

Orbital Elements

The following orbital elements are taken from MPC 24084:
    (3) Juno
Epoch 2002 Nov. 22.0 TT = JDT 2452600.5  (M-c)          Bowell
M 119.14623              (2000.0)            P               Q
n   0.22630198     Peri.  247.94801     +0.52466837     -0.85043715
a   2.6669230      Node   170.13285     +0.84013336     +0.50995630
e   0.2588635      Incl.   12.97220     +0.13747375     +0.12923321
P   4.36           H    5.33          G   0.32
From 4741 observations at 65 oppositions, 1839-1993, mean residual 0".56.
An explanation of the orbital elements is available.

These orbital elements are also available in forms suitable for loading into a number of popular planetarium-type software programs.


Ephemeris

The following ephemeris is at intervals of five days. A daily ephemeris covering the same time interval is also available.

Date    TT    R. A. (2000) Decl.     Delta      r     Elong.  Phase     V
 
2003 02 10    15 14.55   -08 38.6    3.045    3.237    92.2    17.7    11.0
2003 02 15    15 17.30   -08 27.3    2.978    3.243    96.6    17.6    11.0
2003 02 20    15 19.62   -08 13.4    2.912    3.249   101.0    17.4    10.9
2003 02 25    15 21.47   -07 56.7    2.846    3.255   105.6    17.0    10.9
2003 03 02    15 22.83   -07 37.5    2.782    3.261   110.3    16.6    10.8
2003 03 07    15 23.67   -07 15.7    2.720    3.266   115.0    16.0    10.8
2003 03 12    15 23.98   -06 51.5    2.661    3.272   119.9    15.3    10.7
2003 03 17    15 23.75   -06 25.0    2.605    3.277   124.9    14.4    10.6
2003 03 22    15 22.99   -05 56.6    2.553    3.282   129.9    13.5    10.6
2003 03 27    15 21.68   -05 26.3    2.505    3.287   135.0    12.4    10.5
2003 04 01    15 19.85   -04 54.7    2.462    3.292   140.1    11.2    10.4
2003 04 06    15 17.53   -04 22.1    2.425    3.296   145.2    10.0    10.4
2003 04 11    15 14.74   -03 48.9    2.393    3.301   150.3     8.7    10.3
2003 04 16    15 11.56   -03 15.9    2.368    3.305   155.1     7.3    10.2
2003 04 21    15 08.05   -02 43.4    2.350    3.309   159.5     6.1    10.2
2003 04 26    15 04.27   -02 12.1    2.338    3.313   163.0     5.1    10.1
2003 05 01    15 00.31   -01 42.5    2.334    3.317   165.0     4.5    10.1
2003 05 06    14 56.26   -01 15.3    2.336    3.321   164.8     4.6    10.1
2003 05 11    14 52.22   -00 50.9    2.347    3.324   162.6     5.2    10.1
2003 05 16    14 48.29   -00 29.8    2.364    3.327   159.0     6.3    10.2
2003 05 21    14 44.53   -00 12.2    2.388    3.330   154.6     7.5    10.3
2003 05 26    14 41.03   +00 01.6    2.418    3.333   149.9     8.8    10.3
2003 05 31    14 37.85   +00 11.5    2.455    3.336   145.0    10.0    10.4
2003 06 05    14 35.06   +00 17.5    2.497    3.339   140.0    11.3    10.5
2003 06 10    14 32.69   +00 19.6    2.545    3.341   135.1    12.4    10.6
2003 06 15    14 30.77   +00 18.0    2.597    3.343   130.2    13.4    10.6
2003 06 20    14 29.32   +00 12.9    2.653    3.345   125.4    14.3    10.7
2003 06 25    14 28.34   +00 04.5    2.713    3.347   120.7    15.1    10.8
2003 06 30    14 27.85   -00 07.0    2.776    3.349   116.1    15.8    10.9
2003 07 05    14 27.84   -00 21.2    2.841    3.351   111.5    16.4    10.9
2003 07 10    14 28.29   -00 38.0    2.909    3.352   107.1    16.8    11.0
2003 07 15    14 29.19   -00 57.1    2.978    3.353   102.8    17.2    11.1
2003 07 20    14 30.52   -01 18.1    3.048    3.354    98.6    17.4    11.1
2003 07 25    14 32.26   -01 40.9    3.119    3.355    94.5    17.6    11.2
2003 07 30    14 34.40   -02 05.1    3.190    3.356    90.5    17.6    11.2

Back to Bright Minor Planets

Astronomical Headlines Index


Valid HTML 4.01!